TELKOM 3S

Last updated on Wed Mar 11 2026 00:02:54 GMT+0000 (Coordinated Universal Time)

1 41944U 17007A 26069.52715020 -.00000361 00000+0 00000+0 0 9991 2 41944 0.0166 224.3855 0002293 134.7018 116.8740 1.00271415 33156
UTC large
Height (km)
Speed (km/s)
/
Latitude / Longitude
Inclination (degrees)
Orbital Period (minutes)
Azimuth
Elevation
Range (km)
Doppler Factor

Next 0 passes for location: London (51.5072 / 0.1276)

Sorry there are no passes over London.